Istanbul, Turkey

1:34 AM +03 on March 27, 2017 (GMT +0300)
Ataturk

Weather History for LTBA - June, 2014

Change the Weather History Date:

Wednesday, June 18, 2014

  Actual Average Record
Temperature  
Mean Temperature 78 °F -  
Max Temperature 85 °F 81 °F 95 °F (2016)
Min Temperature 72 °F 67 °F 59 °F (2000)
Cooling Degree Days 14    
Growing Degree Days 28 (Base 50)    
Moisture  
Dew Point 66 °F    
Average Humidity 68    
Maximum Humidity 88    
Minimum Humidity 36    
Precipitation  
Precipitation 0.00 in - - ()
Sea Level Pressure  
Sea Level Pressure 29.93 in    
Wind  
Wind Speed 6 mph ()    
Max Wind Speed 14 mph    
Max Gust Speed -    
Visibility 5.7 miles    
Events      
Averages and records for this station are not official NWS values.
T = Trace of Precipitation, MM = Missing Value Source: Averaged Metar Reports

Daily Weather History Graph

Daily Weather History Graph

Search for Another Location

Airport or City:

Trip Planner

Search our weather history database for the weather conditions in past years. The results will help you decide how hot, cold, wet, or windy it might be!

Date:

Astronomy

Jun. 18, 2014 Rise Set
Actual Time 5:32 AM EEST 8:39 PM EEST
Civil Twilight 4:58 AM EEST 9:13 PM EEST
Nautical Twilight 4:15 AM EEST 9:56 PM EEST
Astronomical Twilight 3:24 AM EEST 10:47 PM EEST
Moon No Moon Rise 11:35 AM EEST (6/18)
Length of Visible Light 16h 14m
Length of Day
15h 07m
Waning Gibbous, 66% of the Moon is Illuminated
Jun 18
Waning Gibbous
Jun 19
Last Quarter
Jun 27
New
Jul 5
First Quarter
Jul 12
Full

Hourly Weather History & Observations

Time (EEST) Temp. Heat Index Dew Point Humidity Pressure Visibility Wind Dir Wind Speed Gust Speed Precip Events Conditions
12:00 AM 76 °F - 64 °F 57% 29.95 in 6 mi WSW 4.6 mph - -  
12:20 AM 75.2 °F - 64.4 °F 69% 29.95 in - SW 5.8 mph - N/A   Clear
12:50 AM 75.2 °F - 66.2 °F 73% 29.95 in - SW 6.9 mph - N/A   Clear
1:20 AM 73.4 °F - 69.8 °F 88% 29.95 in - WSW 5.8 mph - N/A   Clear
1:50 AM 73.4 °F - 69.8 °F 88% 29.95 in - West 6.9 mph - N/A   Clear
2:20 AM 73.4 °F - 68.0 °F 83% 29.92 in - West 6.9 mph - N/A   Clear
2:50 AM 73.4 °F - 68.0 °F 83% 29.92 in - WSW 4.6 mph - N/A   Clear
3:00 AM 73 °F - 68 °F 79% 29.94 in 6 mi WSW 4.6 mph - -  
3:20 AM 73.4 °F - 68.0 °F 83% 29.92 in - WSW 4.6 mph - N/A   Clear
3:50 AM 73.4 °F - 66.2 °F 78% 29.92 in - WSW 6.9 mph - N/A   Clear
4:20 AM 73.4 °F - 66.2 °F 78% 29.95 in - West 5.8 mph - N/A   Clear
4:50 AM 73.4 °F - 68.0 °F 83% 29.95 in - SW 4.6 mph - N/A   Clear
5:20 AM 73.4 °F - 68.0 °F 83% 29.95 in - West 4.6 mph - N/A   Clear
5:50 AM 73.4 °F - 68.0 °F 83% 29.95 in - West 3.5 mph - N/A   Clear
6:00 AM 73 °F - 67 °F 76% 29.95 in 6 mi West 3.5 mph - -   Partly Cloudy
6:20 AM 73.4 °F - 68.0 °F 83% 29.92 in - WSW 3.5 mph - N/A   Clear
6:50 AM 73.4 °F - 68.0 °F 83% 29.95 in - SW 6.9 mph - N/A   Clear
7:20 AM 73.4 °F - 69.8 °F 88% 29.95 in 4.3 mi West 4.6 mph - N/A   Unknown
7:50 AM 73.4 °F - 68.0 °F 83% 29.98 in 4.3 mi WSW 5.8 mph - N/A   Unknown
8:20 AM 75.2 °F - 68.0 °F 78% 29.98 in - SW 6.9 mph - N/A   Clear
8:50 AM 75.2 °F - 68.0 °F 78% 29.98 in 5.0 mi WSW 5.8 mph - N/A   Mostly Cloudy
9:00 AM 74 °F - 68 °F 76% 29.99 in 6 mi WSW 5.8 mph - -   Scattered Clouds
9:20 AM 75.2 °F - 66.2 °F 73% 29.98 in 6.2 mi WSW 8.1 mph - N/A   Mostly Cloudy
9:50 AM 75.2 °F - 66.2 °F 73% 29.98 in 4.3 mi West 5.8 mph - N/A   Mostly Cloudy
10:20 AM 77.0 °F - 66.2 °F 69% 29.95 in 4.3 mi Variable 3.5 mph - N/A   Mostly Cloudy
10:50 AM 73.4 °F - 68.0 °F 83% 29.98 in 4.3 mi SSW 6.9 mph - N/A   Mostly Cloudy
11:20 AM 75.2 °F - 68.0 °F 78% 29.98 in 5.0 mi SSW 6.9 mph - N/A   Mostly Cloudy
11:50 AM 75.2 °F - 68.0 °F 78% 29.98 in 4.3 mi SSW 6.9 mph - N/A   Mostly Cloudy
12:00 PM 76 °F - 69 °F 72% 29.97 in 4 mi SSW 6.9 mph - -   Mist
12:20 PM 77.0 °F - 68.0 °F 74% 29.98 in 6.2 mi SW 6.9 mph - N/A   Mostly Cloudy
12:50 PM 77.0 °F - 68.0 °F 74% 29.98 in 6.2 mi WSW 8.1 mph - N/A   Scattered Clouds
1:20 PM 78.8 °F - 66.2 °F 65% 29.98 in 6.2 mi SW 6.9 mph - N/A   Scattered Clouds
1:50 PM 78.8 °F - 64.4 °F 61% 29.95 in 6.2 mi WSW 5.8 mph - N/A   Scattered Clouds
2:20 PM 80.6 °F 82.7 °F 66.2 °F 61% 29.95 in 6.2 mi SW 6.9 mph - N/A   Scattered Clouds
2:50 PM 80.6 °F 82.3 °F 64.4 °F 58% 29.95 in 6.2 mi SSW 6.9 mph - N/A   Scattered Clouds
3:00 PM 81 °F - 64 °F 46% 29.94 in 6 mi SSW 6.9 mph - -   Partly Cloudy
3:20 PM 82.4 °F 82.9 °F 60.8 °F 48% 29.92 in 6.2 mi South 5.8 mph - N/A   Scattered Clouds
3:50 PM 82.4 °F 83.4 °F 62.6 °F 51% 29.92 in 6.2 mi SSW 4.6 mph - N/A   Scattered Clouds
4:20 PM 84.2 °F 83.8 °F 59.0 °F 42% 29.92 in 6.2 mi South 4.6 mph - N/A   Scattered Clouds
4:50 PM 84.2 °F 84.4 °F 60.8 °F 45% 29.89 in 6.2 mi South 4.6 mph - N/A   Scattered Clouds
5:20 PM 84.2 °F 83.8 °F 59.0 °F 42% 29.89 in 6.2 mi South 4.6 mph - N/A   Scattered Clouds
5:50 PM 82.4 °F 82.9 °F 60.8 °F 48% 29.89 in 6.2 mi East 5.8 mph - N/A   Partly Cloudy
6:00 PM 83 °F - 60 °F 36% 29.89 in 6 mi East 5.8 mph - -   Scattered Clouds
6:20 PM 84.2 °F 85.0 °F 62.6 °F 48% 29.86 in 6.2 mi NE 10.4 mph - N/A   Partly Cloudy
6:50 PM 82.4 °F 83.9 °F 64.4 °F 54% 29.86 in 6.2 mi NNE 13.8 mph - N/A   Partly Cloudy
7:20 PM 80.6 °F 82.7 °F 66.2 °F 61% 29.86 in 6.2 mi NNE 10.4 mph - N/A   Partly Cloudy
7:50 PM 80.6 °F 82.3 °F 64.4 °F 58% 29.86 in - NNE 10.4 mph - N/A   Clear
8:20 PM 78.8 °F - 64.4 °F 61% 29.86 in 6.2 mi NNE 12.7 mph - N/A   Partly Cloudy
8:50 PM 78.8 °F - 64.4 °F 61% 29.86 in 6.2 mi NE 9.2 mph - N/A   Partly Cloudy
9:00 PM 79 °F - 65 °F 54% 29.86 in 6 mi NE 9.2 mph - -   Scattered Clouds
9:20 PM 78.8 °F - 64.4 °F 61% 29.86 in - NNE 10.4 mph - N/A   Clear
9:50 PM 78.8 °F - 64.4 °F 61% 29.86 in - NNE 11.5 mph - N/A   Clear
10:20 PM 77.0 °F - 64.4 °F 65% 29.86 in - NNE 9.2 mph - N/A   Clear
10:50 PM 77.0 °F - 64.4 °F 65% 29.86 in - NNE 9.2 mph - N/A   Clear
11:20 PM 75.2 °F - 64.4 °F 69% 29.86 in - NE 10.4 mph - N/A   Clear
11:50 PM 75.2 °F - 64.4 °F 69% 29.86 in - NE 10.4 mph - N/A   Clear